Pensacola, FL

2:24 AM CDT on August 23, 2017 (GMT -0500)
Pensacola Regional

Weather History for KPNS - February, 2012

Change the Weather History Date:

Saturday, February 4, 2012

  Actual Average Record
Temperature  
Mean Temperature 67 °F 53 °F  
Max Temperature 70 °F 62 °F 79 °F (1957)
Min Temperature 63 °F 44 °F 17 °F (1996)
Degree Days  
Heating Degree Days 0 12  
Month to date heating degree days 3 51  
Since 1 July heating degree days 698 1062  
Cooling Degree Days 2 0  
Month to date cooling degree days 3 0  
Year to date cooling degree days 34 6  
Growing Degree Days 16 (Base 50)    
Moisture  
Dew Point 62 °F    
Average Humidity 86    
Maximum Humidity 93    
Minimum Humidity 78    
Precipitation  
Precipitation 0.00 in 0.17 in 2.47 in (1960)
Month to date precipitation 1.71 0.70  
Year to date precipitation 4.20 5.33  
Snow  
Snow 0.00 in 0.00 in - ()
Month to date snowfall 0.0 0.0  
Since 1 July snowfall 0.0 0.0  
Snow Depth 0.00 in    
Sea Level Pressure  
Sea Level Pressure 30.13 in    
Wind  
Wind Speed 8 mph (ESE)    
Max Wind Speed 16 mph    
Max Gust Speed 20 mph    
Visibility 9 miles    
Events      
T = Trace of Precipitation, MM = Missing Value Source: NWS Daily Summary

Daily Weather History Graph

Daily Weather History Graph

Search for Another Location

Airport or City:

Trip Planner

Search our weather history database for the weather conditions in past years. The results will help you decide how hot, cold, wet, or windy it might be!

Date:

Astronomy

Feb. 04, 2012 Rise Set
Actual Time 6:38 AM CST 5:27 PM CST
Civil Twilight 6:13 AM CST 5:52 PM CST
Nautical Twilight 5:44 AM CST 6:21 PM CST
Astronomical Twilight 5:16 AM CST 6:49 PM CST
Moon 2:32 PM CST (2/4) 3:55 AM CST (2/4)
Length of Visible Light 11h 39m
Length of Day
10h 49m
Waxing Gibbous, 89% of the Moon is Illuminated
Feb 4
Waxing Gibbous
Feb 7
Full
Feb 14
Last Quarter
Feb 21
New
Feb 29
First Quarter

Hourly Weather History & Observations

Time (CST) Temp. Dew Point Humidity Pressure Visibility Wind Dir Wind Speed Gust Speed Precip Events Conditions
12:53 AM 64.0 °F 59.0 °F 84% 30.14 in 10.0 mi SE 12.7 mph - N/A   Clear
1:53 AM 64.0 °F 57.9 °F 80% 30.13 in 10.0 mi SE 13.8 mph - N/A   Clear
2:53 AM 63.0 °F 59.0 °F 87% 30.14 in 10.0 mi SE 11.5 mph - N/A   Clear
3:53 AM 64.0 °F 59.0 °F 84% 30.15 in 10.0 mi ESE 10.4 mph - N/A   Partly Cloudy
4:53 AM 63.0 °F 60.1 °F 90% 30.16 in 10.0 mi ESE 8.1 mph - N/A   Clear
5:53 AM 64.0 °F 61.0 °F 90% 30.16 in 10.0 mi ESE 9.2 mph - N/A   Partly Cloudy
6:53 AM 64.0 °F 61.0 °F 90% 30.17 in 10.0 mi ESE 11.5 mph - N/A   Mostly Cloudy
7:53 AM 64.9 °F 62.1 °F 90% 30.17 in 10.0 mi ESE 9.2 mph - N/A   Overcast
8:24 AM 66.2 °F 62.6 °F 88% 30.17 in 10.0 mi ESE 11.5 mph - N/A   Overcast
8:53 AM 66.0 °F 62.1 °F 87% 30.17 in 10.0 mi SE 10.4 mph - N/A   Overcast
9:53 AM 66.9 °F 62.1 °F 84% 30.18 in 10.0 mi ESE 13.8 mph - N/A   Overcast
10:53 AM 66.9 °F 62.1 °F 84% 30.17 in 10.0 mi ESE 13.8 mph - N/A   Overcast
11:53 AM 68.0 °F 63.0 °F 84% 30.16 in 10.0 mi SE 9.2 mph - N/A   Overcast
12:53 PM 69.1 °F 63.0 °F 81% 30.12 in 9.0 mi ESE 10.4 mph - N/A   Overcast
1:53 PM 69.1 °F 64.0 °F 84% 30.10 in 9.0 mi SE 12.7 mph - N/A   Overcast
2:53 PM 69.1 °F 64.0 °F 84% 30.09 in 9.0 mi ESE 8.1 mph - N/A   Overcast
3:53 PM 68.0 °F 64.0 °F 87% 30.09 in 8.0 mi SE 8.1 mph - N/A   Overcast
4:53 PM 66.9 °F 64.0 °F 90% 30.10 in 7.0 mi ESE 6.9 mph - N/A   Overcast
5:53 PM 66.9 °F 64.0 °F 90% 30.10 in 8.0 mi ESE 5.8 mph - N/A   Overcast
6:53 PM 66.9 °F 64.0 °F 90% 30.11 in 8.0 mi ESE 3.5 mph - N/A   Overcast
7:53 PM 66.9 °F 64.0 °F 90% 30.11 in 7.0 mi SE 3.5 mph - N/A   Overcast
8:53 PM 66.9 °F 64.0 °F 90% 30.11 in 7.0 mi ESE 3.5 mph - N/A   Overcast
9:53 PM 66.0 °F 64.0 °F 93% 30.09 in 6.0 mi Calm Calm - N/A   Overcast
10:53 PM 66.9 °F 64.9 °F 93% 30.09 in 5.0 mi Calm Calm - N/A   Overcast
11:53 PM 66.9 °F 64.9 °F 93% 30.08 in 4.0 mi SSE 3.5 mph - N/A   Overcast